09:37
Airports
History
Links
Donate
Help keep this website running!
PayPal
Bitcoin
This page is community maintained. The information is intended for PC simulator navigation or reference.
Always use approved charts for navigation.
SBPR
CARLOS PRATES
CARLOS PRATES (SBPR)
Belo Horizonte, Minas Gerais, Brazil (30730)
(U)
Lat/Lng:19° 54' 33" S / 43° 59' 27" W
-19.909167 / -43.990834
Elevation:3044'ft / 928mMSL
ID / ICAO:SBPR
Runways:1
Longest:09-27
Asphalt 917m / 3,010ft
Nearby Weather08:00 GMT 2017-10-24
Nearby weather at SBBH, Pampulha located 4.8 nautical miles from SBPR
Altimeter: 30.06
Visibility: 6.2 statute miles
Wind: 9 knots (from 100°)
Temp: 20°c / 68°f
Humidity: 77.8%

METAR: SBBH 240800Z 10009KT CAVOK 20/16 Q1018

(Powered by phpweather)
Airport Radio Frequencies
BELO HORIZONTE ATIS: 127.45
Tower: 125.85
Runway 09 / 27
Dimensions:917.3 x 18m 3010' x 59'ft
Surface:Asphalt
Runway 09 [A]Runway 27 [B]
Heading:066°TH 246°TH
Lat:
Lng:
19° 54' 38.88"S
43° 59' 41.64"W
19° 54' 27.12"S
43° 59' 12.36"W
User Notes and Comments
19° 54' 33" S / 43° 59' 27" W
Distance To
Airport ID:
Nearby Airports
(C) Pampulha 4.8 NM
SBBH ( WX ) NNE 33°
(C) LAGOA SANTA 18.2 NM
SBLS NNE 19°
4 Fazenda Haras RPC 18.4 NM
SJQT SSE 166°
(C) Tancredo Neves 19.1 NM
SBCF ( WX ) N
4 Fazenda das Perobas 30.1 NM
SWJX NNW 338°
4 Cirrus Sociedade Aerodesportiva 32.1 NM
SIVJ N 10°
4 Serra do Cipo 38.7 NM
SNLG NNE 24°
VFR Chart
Flight Planning at SkyVector.com